STARLINK-1661, 46355

Orbit data source: Space-Track

STARLINK-1661, 46355 is a payload satellite owned by SpaceX/Seattle (US) in LEO that was launched on Thu, 03 Sep 2020 UTC via an FALCON 9 launch vehicle from the Air Force Eastern Test Range (AFETR). Payload-class satellites include a variety of spacecraft equipped with specific instruments for various scientific and technological missions. These include communications satellites like Starlink; space stations such as the ISS; scientific satellites like the Hubble; Earth observation satellites from companies like Planet Labs, Umbra, and HawkEye 360; GPS; miniature CubeSats for education and research; and military/defense satellites.

Loading next visibility...
Identifier
46355, 2020-062AG
Orbit
LEO
Country
Flag of USUS
Related business
Manufacturer
SpaceX/Seattle
Mission
Operational Commercial Communications
Bus & Motor
STARLINK, Unknown motor
Mass
260 kg wet, ~248 kg dry
Launch date (UTC)
2020-09-03 (5 years ago)
Launch vehicle
FALCON 9
Launch site
Air Force Eastern Test Range (AFETR)
Object type
Payload
Rocket body
Debris
Shape & HBR
Box + 1 Pan, 4.4 m
Radar Cross Section
13.562 m², Large (>1 m²)

Expand to show TLE details & history
Last TLE update: 16 hours ago

TLE from 16 hours ago
0 STARLINK-1661
1 46355U 20062AG  25259.81063014 -.00000914  00000-0 -42504-4 0  9994
2 46355  53.0541  77.1911 0001298  90.2703 269.8435 15.06392484278107
Epoch: 2025-09-16T19:27Z
TLE epoch observation values (Epoch: 2025-09-16T19:27:18.444Z)
Latitude
0.00002°
Longitude
149.36868°
Altitude
548.116 km
Speed
7.589 km/s
True Right ascension
05h 08m 45s
True Declination
0° 00' 00"
Sunlit
Object was in daylight at epoch
Visualization orbit readout
Latitude
Unknown
Longitude
Unknown
Altitude
Unknown
Speed
Unknown
Apparent Right ascension
Unknown
Apparent Declination
Unknown
Sunlit
N/A
Visualization observer readout
Local Sidereal Time
04:11:29
Azimuth
Unknown
Elevation
Unknown
Doppler factor
Unknown
Orbital elements
Apogee altitude
548.404 km
Perigee altitude
546.606 km
Semi-major axis
6,925.642 km
Eccentricity
0.00013
Inclination
53.0541°
RAAN
77.1911°
Arg. of periapsis
90.2703°
True anomaly
269.82863°
Mean anomaly
269.8435°
Eccentric anomaly
269.83606°
Mean motion
3.76576 °/min
Orbital period
95.6 mins
BSTAR
-0.000042504
Loading maneuver chart data...
Computing Atmospheric mass density...
Loading historical data...
Loading historical data...
Loading historical data...
Loading historical data...
Loading historical data...
Loading historical data...
Loading historical data...

Documentation

Showing up to 5 results
|